KLM548 EHAM-FNLU

Flight info

Callsign KLM548
Flight time N/A
Altitude 37000
Route LOPIK N852 SUTAL DCT DEVDI DCT AKASU DCT BORDI DCT GARPU DCT CIRTA UA605 CSO UM998 BOD UR978 MELOG/N0478F390 UR978 AS UA604 DLA UG861 MESIN UY339 LIKAD UR526 EXITO
Aircraft B772/H-SDE2E3FGHIJ5LORVWXY/LB1D1

Departure

Time 2026-05-05 07:49
Airport Amsterdam Airport Schiphol (EHAM)

Arrival

Time N/A
Airport Quatro de Fevereiro International Airport (FNLU)
Time Latitude Longitude Altitude Speed Heading
2026-05-05 07:24 52.31208 4.76558 3 ft 0 kts 124°
2026-05-05 07:25 52.31204 4.76564 3 ft 0 kts 123°
2026-05-05 07:34 52.31205 4.76563 3 ft 1 kts 123°
2026-05-05 07:34 52.31212 4.76546 3 ft 2 kts 123°
2026-05-05 07:34 52.31219 4.76526 4 ft 2 kts 123°
2026-05-05 07:34 52.31227 4.76507 7 ft 2 kts 123°
2026-05-05 07:35 52.31238 4.76480 5 ft 4 kts 123°
2026-05-05 07:35 52.31246 4.76439 6 ft 2 kts 45°
2026-05-05 07:35 52.31245 4.76436 7 ft 0 kts 33°
2026-05-05 07:37 52.31267 4.76455 5 ft 7 kts 27°
2026-05-05 07:37 52.31311 4.76496 3 ft 7 kts 32°
2026-05-05 07:37 52.31354 4.76541 3 ft 7 kts 33°
2026-05-05 07:38 52.31396 4.76587 3 ft 7 kts 34°
2026-05-05 07:38 52.31437 4.76632 3 ft 7 kts 34°
2026-05-05 07:38 52.31482 4.76669 3 ft 7 kts 12°
2026-05-05 07:38 52.31534 4.76668 3 ft 8 kts 344°
2026-05-05 07:39 52.31546 4.76575 4 ft 10 kts 256°
2026-05-05 07:39 52.31542 4.76407 4 ft 20 kts 269°
2026-05-05 07:39 52.31536 4.76154 3 ft 22 kts 267°
2026-05-05 07:39 52.31529 4.75924 3 ft 19 kts 266°
2026-05-05 07:40 52.31520 4.75703 3 ft 19 kts 267°
2026-05-05 07:40 52.31512 4.75482 3 ft 19 kts 266°
2026-05-05 07:40 52.31505 4.75262 3 ft 19 kts 266°
2026-05-05 07:40 52.31498 4.75042 3 ft 19 kts 266°
2026-05-05 07:41 52.31491 4.74821 3 ft 19 kts 267°
2026-05-05 07:41 52.31483 4.74601 3 ft 19 kts 266°
2026-05-05 07:41 52.31477 4.74381 3 ft 19 kts 274°
2026-05-05 07:41 52.31571 4.74300 3 ft 17 kts
2026-05-05 07:42 52.31688 4.74311 3 ft 17 kts
2026-05-05 07:42 52.31768 4.74319 3 ft 17 kts
2026-05-05 07:42 52.31886 4.74330 3 ft 17 kts
2026-05-05 07:42 52.32019 4.74291 3 ft 10 kts 306°
2026-05-05 07:43 52.32030 4.74228 3 ft 7 kts 277°
2026-05-05 07:43 52.32031 4.74197 3 ft 0 kts 272°
2026-05-05 07:43 52.32031 4.74193 3 ft 3 kts 272°
2026-05-05 07:43 52.32034 4.74078 3 ft 17 kts 272°
2026-05-05 07:44 52.32042 4.73845 3 ft 22 kts 273°
2026-05-05 07:44 52.32052 4.73575 3 ft 26 kts 274°
2026-05-05 07:44 52.32117 4.73315 3 ft 26 kts 317°
2026-05-05 07:44 52.32252 4.73126 3 ft 26 kts 320°
2026-05-05 07:45 52.32387 4.72936 3 ft 26 kts 319°
2026-05-05 07:45 52.32522 4.72747 3 ft 26 kts 319°
2026-05-05 07:45 52.32657 4.72556 3 ft 26 kts 318°
2026-05-05 07:45 52.32774 4.72343 3 ft 26 kts 311°
2026-05-05 07:46 52.32895 4.72125 3 ft 26 kts 312°
2026-05-05 07:46 52.33009 4.71907 3 ft 26 kts 311°
2026-05-05 07:46 52.33127 4.71690 3 ft 26 kts 310°
2026-05-05 07:46 52.33097 4.71449 3 ft 22 kts 222°
2026-05-05 07:47 52.32984 4.71287 3 ft 22 kts 221°
2026-05-05 07:47 52.32881 4.71132 3 ft 18 kts 233°
2026-05-05 07:47 52.32866 4.70945 2 ft 13 kts 285°
2026-05-05 07:47 52.32924 4.70899 2 ft 1 kts
2026-05-05 07:48 52.32926 4.70899 2 ft 0 kts
2026-05-05 07:48 52.32947 4.70901 2 ft 13 kts
2026-05-05 07:48 52.33255 4.70928 0 ft 79 kts
2026-05-05 07:48 52.34016 4.71000 2 ft 139 kts
2026-05-05 07:49 52.35098 4.71085 338 ft 158 kts
2026-05-05 07:49 52.36209 4.71180 1016 ft 162 kts
2026-05-05 07:49 52.37333 4.71282 1793 ft 161 kts
2026-05-05 07:49 52.38513 4.71391 2133 ft 182 kts
2026-05-05 07:50 52.39836 4.71576 2412 ft 199 kts 13°
2026-05-05 07:50 52.41148 4.72551 2570 ft 217 kts 41°
2026-05-05 07:50 52.42090 4.74599 2828 ft 238 kts 69°
2026-05-05 07:50 52.42231 4.77302 3408 ft 247 kts 100°
2026-05-05 07:51 52.41408 4.79804 3871 ft 260 kts 137°
2026-05-05 07:51 52.39784 4.81093 4489 ft 263 kts 171°
2026-05-05 07:51 52.37966 4.81423 5032 ft 265 kts 173°
2026-05-05 07:51 52.36156 4.81844 5619 ft 268 kts 171°
2026-05-05 07:52 52.34309 4.82374 6222 ft 271 kts 170°
2026-05-05 07:52 52.32435 4.82898 6772 ft 275 kts 171°
2026-05-05 07:52 52.30539 4.83419 7309 ft 278 kts 171°
2026-05-05 07:52 52.28620 4.83959 7868 ft 281 kts 171°
2026-05-05 07:53 52.26688 4.84513 8367 ft 283 kts 169°
2026-05-05 07:53 52.24858 4.85712 8639 ft 288 kts 144°
2026-05-05 07:53 52.23292 4.87779 9052 ft 291 kts 141°
2026-05-05 07:53 52.21727 4.89872 9642 ft 292 kts 141°
2026-05-05 07:54 52.20134 4.91976 10049 ft 298 kts 141°
2026-05-05 07:54 52.18500 4.94120 10321 ft 309 kts 141°
2026-05-05 07:54 52.16780 4.96362 10469 ft 324 kts 142°
2026-05-05 07:54 52.14965 4.98718 10595 ft 343 kts 142°
2026-05-05 07:55 52.13046 5.01201 10745 ft 362 kts 142°
2026-05-05 07:55 52.11036 5.03796 11116 ft 373 kts 142°
2026-05-05 07:55 52.08850 5.06052 11571 ft 376 kts 159°
2026-05-05 07:55 52.06339 5.07197 12085 ft 379 kts 167°
2026-05-05 07:56 52.03756 5.08228 12766 ft 385 kts 166°
2026-05-05 07:56 52.01182 5.09313 13526 ft 388 kts 165°
2026-05-05 07:56 51.98564 5.10460 14228 ft 391 kts 165°
2026-05-05 07:56 51.95933 5.11632 14944 ft 393 kts 165°
2026-05-05 07:57 51.93296 5.12808 15616 ft 396 kts 165°
2026-05-05 07:57 51.90623 5.13999 16223 ft 401 kts 165°
2026-05-05 07:57 51.87918 5.15201 16800 ft 405 kts 165°
2026-05-05 07:57 51.85177 5.16417 17361 ft 410 kts 165°
2026-05-05 07:58 51.82402 5.17647 17885 ft 415 kts 165°
2026-05-05 07:58 51.79606 5.18885 18443 ft 418 kts 165°
2026-05-05 07:58 51.76796 5.20129 18982 ft 420 kts 166°
2026-05-05 07:58 51.73976 5.21375 19502 ft 422 kts 166°
2026-05-05 07:59 51.71133 5.22629 19967 ft 425 kts 166°
2026-05-05 07:59 51.68270 5.23890 20449 ft 428 kts 166°
2026-05-05 07:59 51.65393 5.25158 20915 ft 430 kts 166°
2026-05-05 07:59 51.62497 5.26430 21374 ft 433 kts 166°
2026-05-05 08:00 51.59581 5.27710 21849 ft 436 kts 166°
2026-05-05 08:00 51.56647 5.28996 22293 ft 439 kts 166°
2026-05-05 08:00 51.53691 5.30291 22743 ft 442 kts 166°
2026-05-05 08:00 51.50712 5.31593 23175 ft 445 kts 166°
2026-05-05 08:01 51.47714 5.32902 23594 ft 448 kts 167°
2026-05-05 08:01 51.44737 5.34201 23977 ft 450 kts 166°
2026-05-05 08:01 51.41717 5.35517 24409 ft 450 kts 167°
2026-05-05 08:01 51.38684 5.36835 24828 ft 451 kts 167°
2026-05-05 08:02 51.35654 5.38155 25235 ft 453 kts 167°
2026-05-05 08:02 51.32608 5.39484 25608 ft 454 kts 167°
2026-05-05 08:02 51.29555 5.40814 25995 ft 456 kts 167°
2026-05-05 08:02 51.26486 5.42135 26396 ft 456 kts 168°
2026-05-05 08:03 51.23388 5.43237 26784 ft 456 kts 171°
2026-05-05 08:03 51.20275 5.44258 27165 ft 458 kts 171°
2026-05-05 08:03 51.17155 5.45351 27533 ft 460 kts 168°
2026-05-05 08:03 51.14059 5.46683 27862 ft 462 kts 167°
2026-05-05 08:04 51.10958 5.48056 28183 ft 464 kts 167°
2026-05-05 08:04 51.07850 5.49437 28515 ft 465 kts 167°
2026-05-05 08:04 51.04729 5.50817 28837 ft 465 kts 167°
2026-05-05 08:04 51.01610 5.52189 29143 ft 467 kts 168°
2026-05-05 08:05 50.98476 5.53558 29435 ft 468 kts 168°
2026-05-05 08:05 50.95369 5.54909 29712 ft 469 kts 168°
2026-05-05 08:05 50.92213 5.56279 29981 ft 469 kts 168°
2026-05-05 08:05 50.89070 5.57641 30319 ft 467 kts 168°
2026-05-05 08:06 50.85951 5.58993 30809 ft 462 kts 168°
2026-05-05 08:06 50.82864 5.60329 31292 ft 457 kts 168°
2026-05-05 08:06 50.79806 5.61650 31705 ft 454 kts 169°
2026-05-05 08:06 50.76766 5.62960 32116 ft 451 kts 169°
2026-05-05 08:07 50.73747 5.64260 32494 ft 448 kts 169°
2026-05-05 08:07 50.70744 5.65551 32877 ft 445 kts 169°
2026-05-05 08:07 50.67772 5.66830 33283 ft 442 kts 169°
2026-05-05 08:07 50.64818 5.68154 33650 ft 440 kts 168°
2026-05-05 08:08 50.61886 5.69498 33983 ft 438 kts 168°
2026-05-05 08:08 50.58954 5.70848 34179 ft 440 kts 167°
2026-05-05 08:08 50.56044 5.72438 34287 ft 445 kts 164°
2026-05-05 08:08 50.53139 5.74157 34435 ft 446 kts 164°
2026-05-05 08:09 50.50232 5.75880 34626 ft 447 kts 164°
2026-05-05 08:09 50.47318 5.77603 34780 ft 449 kts 164°
2026-05-05 08:09 50.41433 5.81056 34883 ft 453 kts 164°
2026-05-05 08:10 50.36028 5.84212 34883 ft 452 kts 164°
2026-05-05 08:10 50.30212 5.87600 34883 ft 447 kts 164°
2026-05-05 08:11 50.24391 5.90976 34881 ft 445 kts 164°
2026-05-05 08:11 50.18580 5.94339 34884 ft 445 kts 164°
2026-05-05 08:12 50.12769 5.97694 34883 ft 446 kts 164°
2026-05-05 08:12 50.06944 6.01048 34883 ft 447 kts 164°
2026-05-05 08:13 50.01100 6.04413 34877 ft 448 kts 164°
2026-05-05 08:13 49.95288 6.07750 34882 ft 449 kts 164°
2026-05-05 08:14 49.89422 6.11104 34878 ft 449 kts 164°
2026-05-05 08:14 49.83595 6.14648 34875 ft 451 kts 161°
2026-05-05 08:15 49.77849 6.18589 34873 ft 451 kts 160°
2026-05-05 08:15 49.72112 6.22507 34894 ft 450 kts 161°
2026-05-05 08:16 49.66368 6.26397 34871 ft 450 kts 161°
2026-05-05 08:16 49.60622 6.30231 34888 ft 449 kts 161°
2026-05-05 08:17 49.54854 6.33942 34885 ft 448 kts 161°
2026-05-05 08:17 49.49102 6.37647 34886 ft 448 kts 161°
2026-05-05 08:18 49.43376 6.41419 34879 ft 448 kts 160°
2026-05-05 08:18 49.37731 6.45347 34880 ft 449 kts 160°
2026-05-05 08:19 49.32049 6.49317 34885 ft 449 kts 160°
2026-05-05 08:19 49.26359 6.53259 34881 ft 448 kts 160°
2026-05-05 08:20 49.20665 6.57177 34887 ft 448 kts 160°
2026-05-05 08:20 49.14968 6.61082 34894 ft 449 kts 160°
2026-05-05 08:21 49.09255 6.64989 34881 ft 449 kts 160°
2026-05-05 08:21 49.03553 6.68880 34893 ft 449 kts 160°
2026-05-05 08:22 48.97862 6.72755 34891 ft 448 kts 160°
2026-05-05 08:22 48.92213 6.76590 34895 ft 447 kts 160°
2026-05-05 08:23 48.86538 6.80434 34901 ft 446 kts 160°
2026-05-05 08:23 48.80867 6.84264 34899 ft 446 kts 160°
2026-05-05 08:24 48.75198 6.88084 34905 ft 446 kts 160°
2026-05-05 08:24 48.69528 6.91896 34907 ft 445 kts 160°
2026-05-05 08:25 48.63855 6.95700 34903 ft 445 kts 160°
2026-05-05 08:25 48.58191 6.99488 34900 ft 445 kts 160°
2026-05-05 08:26 48.52518 7.03275 34897 ft 445 kts 160°
2026-05-05 08:26 48.46907 7.07008 34899 ft 445 kts 160°
2026-05-05 08:27 48.41315 7.10721 34900 ft 445 kts 160°
2026-05-05 08:27 48.35686 7.14451 34900 ft 445 kts 160°
2026-05-05 08:28 48.30019 7.18195 34882 ft 445 kts 160°
2026-05-05 08:28 48.24491 7.21840 34881 ft 444 kts 160°
2026-05-05 08:29 48.18837 7.25557 34877 ft 443 kts 160°
2026-05-05 08:30 48.10384 7.31102 34881 ft 442 kts 160°
2026-05-05 08:30 48.04756 7.34779 34885 ft 442 kts 160°
2026-05-05 08:31 47.99118 7.38455 34881 ft 441 kts 160°
2026-05-05 08:31 47.94434 7.41504 34887 ft 441 kts 160°
2026-05-05 08:32 47.87904 7.45744 34887 ft 440 kts 160°
2026-05-05 08:32 47.83201 7.48791 34903 ft 440 kts 160°
2026-05-05 08:33 47.77595 7.52415 34907 ft 439 kts 160°
2026-05-05 08:33 47.71975 7.56010 34907 ft 439 kts 160°
2026-05-05 08:34 47.66355 7.59389 34912 ft 438 kts 161°
2026-05-05 08:34 47.60685 7.62743 34913 ft 439 kts 161°
2026-05-05 08:35 47.54998 7.66119 34907 ft 440 kts 161°
2026-05-05 08:35 47.49481 7.69403 34881 ft 440 kts 161°
2026-05-05 08:36 47.43792 7.72788 34896 ft 441 kts 161°
2026-05-05 08:36 47.38094 7.76168 34894 ft 441 kts 161°
2026-05-05 08:37 47.32396 7.79542 34916 ft 442 kts 161°
2026-05-05 08:37 47.26686 7.82915 34909 ft 442 kts 161°
2026-05-05 08:38 47.21008 7.86260 34911 ft 443 kts 161°
2026-05-05 08:38 47.15281 7.89626 34913 ft 444 kts 161°
2026-05-05 08:39 47.09546 7.92990 34917 ft 444 kts 161°
2026-05-05 08:39 47.03800 7.96352 34915 ft 445 kts 161°
2026-05-05 08:40 46.98038 7.99716 34907 ft 446 kts 161°
2026-05-05 08:40 46.92275 8.03072 34925 ft 446 kts 161°
2026-05-05 08:41 46.86499 8.06428 34922 ft 447 kts 161°
2026-05-05 08:41 46.80703 8.09787 34921 ft 448 kts 161°
2026-05-05 08:42 46.74905 8.13142 34924 ft 449 kts 161°
2026-05-05 08:42 46.69095 8.16494 34924 ft 449 kts 161°
2026-05-05 08:43 46.63324 8.19817 34913 ft 449 kts 161°
2026-05-05 08:43 46.57506 8.23158 34944 ft 449 kts 161°
2026-05-05 08:44 46.51684 8.26494 34965 ft 450 kts 161°
2026-05-05 08:44 46.45844 8.29831 34981 ft 451 kts 161°
2026-05-05 08:45 46.40009 8.33162 35020 ft 451 kts 161°
2026-05-05 08:45 46.34166 8.36488 35041 ft 451 kts 161°
2026-05-05 08:46 46.28317 8.39809 35038 ft 452 kts 161°
2026-05-05 08:46 46.22455 8.43131 35041 ft 453 kts 162°
2026-05-05 08:47 46.16586 8.46449 35042 ft 453 kts 161°
2026-05-05 08:47 46.13595 8.47813 35046 ft 448 kts 172°
2026-05-05 08:47 46.10514 8.48313 35033 ft 445 kts 180°
2026-05-05 08:48 46.04401 8.47343 35047 ft 441 kts 195°
2026-05-05 08:48 45.98459 8.45074 35023 ft 443 kts 196°
2026-05-05 08:49 45.92487 8.42799 35032 ft 444 kts 196°
2026-05-05 08:49 45.86536 8.40583 35022 ft 445 kts 195°
2026-05-05 08:50 45.80522 8.38375 35012 ft 445 kts 195°
2026-05-05 08:50 45.74513 8.36180 35000 ft 446 kts 195°
2026-05-05 08:51 45.68496 8.33986 35009 ft 446 kts 196°
2026-05-05 08:51 45.62470 8.31792 34999 ft 446 kts 196°
2026-05-05 08:52 45.56457 8.29609 34986 ft 445 kts 196°
2026-05-05 08:52 45.50460 8.27435 34994 ft 444 kts 196°
2026-05-05 08:53 45.44511 8.25284 34997 ft 443 kts 196°
2026-05-05 08:53 45.38535 8.23128 34994 ft 442 kts 196°
2026-05-05 08:54 45.32575 8.20982 34991 ft 442 kts 196°
2026-05-05 08:54 45.26618 8.18842 34989 ft 441 kts 197°
2026-05-05 08:55 45.20663 8.16707 34970 ft 441 kts 197°
2026-05-05 08:55 45.14713 8.14578 34973 ft 441 kts 197°
2026-05-05 08:56 45.08759 8.12452 34977 ft 441 kts 197°
2026-05-05 08:56 45.02802 8.10330 34970 ft 441 kts 197°
2026-05-05 08:57 44.96846 8.08215 34974 ft 442 kts 197°
2026-05-05 08:57 44.90884 8.06100 34971 ft 442 kts 197°
2026-05-05 08:58 44.84918 8.03988 34972 ft 442 kts 197°
2026-05-05 08:58 44.78979 8.01891 34974 ft 442 kts 198°
2026-05-05 08:59 44.73005 7.99787 34974 ft 443 kts 198°
2026-05-05 08:59 44.67034 7.97686 34980 ft 442 kts 198°
2026-05-05 09:00 44.61057 7.95588 34986 ft 442 kts 198°
2026-05-05 09:00 44.55075 7.93493 34984 ft 443 kts 198°
2026-05-05 09:01 44.49104 7.91408 34993 ft 442 kts 198°
2026-05-05 09:01 44.43129 7.89324 34980 ft 442 kts 198°
2026-05-05 09:02 44.37163 7.87248 34989 ft 441 kts 198°
2026-05-05 09:02 44.31205 7.85180 34985 ft 441 kts 198°
2026-05-05 09:03 44.25286 7.83128 34965 ft 441 kts 198°
2026-05-05 09:03 44.19301 7.81059 34954 ft 440 kts 198°
2026-05-05 09:04 44.13406 7.79024 34961 ft 440 kts 198°
2026-05-05 09:04 44.07467 7.76976 34958 ft 440 kts 198°
2026-05-05 09:05 44.01511 7.74993 34974 ft 442 kts 195°
2026-05-05 09:05 43.95402 7.73622 34955 ft 445 kts 194°
2026-05-05 09:06 43.89285 7.72300 34965 ft 445 kts 194°
2026-05-05 09:06 43.83167 7.70959 34967 ft 445 kts 194°
2026-05-05 09:07 43.77051 7.69613 34957 ft 444 kts 194°
2026-05-05 09:07 43.70956 7.68271 34966 ft 443 kts 194°
2026-05-05 09:08 43.64872 7.66932 34976 ft 442 kts 194°
2026-05-05 09:08 43.58788 7.65597 34963 ft 442 kts 194°
2026-05-05 09:09 43.52721 7.64268 34956 ft 441 kts 194°
2026-05-05 09:09 43.46667 7.62945 34958 ft 440 kts 194°
2026-05-05 09:10 43.40626 7.61628 34962 ft 439 kts 194°
2026-05-05 09:10 43.34599 7.60316 34957 ft 438 kts 194°
2026-05-05 09:11 43.28578 7.59008 34955 ft 438 kts 194°
2026-05-05 09:11 43.22554 7.57701 34956 ft 438 kts 194°
2026-05-05 09:12 43.16560 7.56404 34955 ft 439 kts 193°
2026-05-05 09:12 43.10526 7.55101 34954 ft 439 kts 193°
2026-05-05 09:13 43.04484 7.53799 34953 ft 440 kts 193°
2026-05-05 09:13 42.98436 7.52499 34953 ft 440 kts 193°
2026-05-05 09:14 42.92390 7.51201 34954 ft 440 kts 193°
2026-05-05 09:14 42.86337 7.49905 34955 ft 440 kts 193°
2026-05-05 09:15 42.80285 7.48611 34954 ft 440 kts 193°
2026-05-05 09:15 42.74229 7.47319 34950 ft 440 kts 193°
2026-05-05 09:16 42.68178 7.46031 34956 ft 440 kts 193°
2026-05-05 09:16 42.62128 7.44745 34959 ft 440 kts 193°
2026-05-05 09:17 42.56086 7.43464 34962 ft 439 kts 193°
2026-05-05 09:17 42.50083 7.42193 34962 ft 439 kts 193°
2026-05-05 09:18 42.44040 7.40916 34966 ft 439 kts 193°
2026-05-05 09:18 42.37995 7.39641 34967 ft 440 kts 193°
2026-05-05 09:19 42.32968 7.38583 34967 ft 440 kts 193°
2026-05-05 09:19 42.26921 7.37313 34972 ft 440 kts 193°
2026-05-05 09:20 42.20861 7.36042 34969 ft 441 kts 193°
2026-05-05 09:20 42.14795 7.34772 34972 ft 441 kts 193°
2026-05-05 09:21 42.08730 7.33505 34972 ft 441 kts 193°
2026-05-05 09:21 42.02655 7.32239 34979 ft 442 kts 194°
2026-05-05 09:22 41.96580 7.30975 34974 ft 442 kts 194°
2026-05-05 09:22 41.90491 7.29710 34976 ft 442 kts 194°
2026-05-05 09:23 41.84412 7.28450 34978 ft 442 kts 194°
2026-05-05 09:23 41.78328 7.27191 34983 ft 442 kts 194°
2026-05-05 09:24 41.72282 7.25942 34983 ft 443 kts 194°
2026-05-05 09:24 41.66186 7.24685 34982 ft 443 kts 194°
2026-05-05 09:25 41.60067 7.23539 34981 ft 446 kts 190°
2026-05-05 09:25 41.53856 7.23047 34986 ft 448 kts 189°
2026-05-05 09:26 41.47626 7.22573 34986 ft 448 kts 189°
2026-05-05 09:26 41.41394 7.22082 34988 ft 449 kts 189°
2026-05-05 09:27 41.35194 7.21585 34995 ft 449 kts 189°
2026-05-05 09:27 41.28939 7.21081 34991 ft 450 kts 190°
2026-05-05 09:28 41.22671 7.20577 34996 ft 451 kts 190°
2026-05-05 09:28 41.16404 7.20075 34994 ft 451 kts 190°
2026-05-05 09:29 41.10126 7.19573 34995 ft 452 kts 190°
2026-05-05 09:29 41.03895 7.19076 35007 ft 452 kts 190°
2026-05-05 09:30 40.97619 7.18576 35012 ft 452 kts 190°
2026-05-05 09:30 40.91325 7.18076 35005 ft 452 kts 190°
2026-05-05 09:31 40.85049 7.17578 35007 ft 452 kts 190°
2026-05-05 09:31 40.78766 7.17080 35006 ft 452 kts 190°
2026-05-05 09:32 40.72488 7.16584 35009 ft 452 kts 190°
2026-05-05 09:32 40.66210 7.16088 35009 ft 452 kts 190°
2026-05-05 09:33 40.59934 7.15594 35012 ft 452 kts 190°
2026-05-05 09:33 40.53646 7.15099 35015 ft 453 kts 190°
2026-05-05 09:34 40.47382 7.14607 35005 ft 453 kts 190°
2026-05-05 09:34 40.41080 7.14114 35012 ft 453 kts 190°
2026-05-05 09:35 40.34779 7.13622 35016 ft 453 kts 190°
2026-05-05 09:35 40.25327 7.12885 35011 ft 453 kts 190°
2026-05-05 09:36 40.19020 7.12394 35013 ft 453 kts 191°
2026-05-05 09:36 40.12758 7.11908 35015 ft 453 kts 190°
2026-05-05 09:37 40.06455 7.11419 35015 ft 454 kts 190°
2026-05-05 09:37 40.00139 7.10930 35014 ft 454 kts 190°
2026-05-05 09:38 39.93826 7.10443 35014 ft 454 kts 190°
2026-05-05 09:38 39.87508 7.09956 35011 ft 455 kts 190°
2026-05-05 09:39 39.81189 7.09470 35017 ft 455 kts 190°
2026-05-05 09:39 39.74912 7.08987 35013 ft 455 kts 190°
2026-05-05 09:40 39.68584 7.08502 35012 ft 455 kts 190°
2026-05-05 09:40 39.62254 7.08018 35014 ft 455 kts 190°
2026-05-05 09:41 39.55923 7.07534 35015 ft 456 kts 190°
2026-05-05 09:41 39.49582 7.07051 35014 ft 456 kts 190°
2026-05-05 09:42 39.43244 7.06568 35013 ft 456 kts 190°
2026-05-05 09:42 39.36904 7.06087 35014 ft 457 kts 190°
2026-05-05 09:43 39.30556 7.05605 35007 ft 457 kts 190°
2026-05-05 09:43 39.24243 7.05127 35012 ft 457 kts 190°
2026-05-05 09:44 39.17884 7.04647 35018 ft 457 kts 190°
2026-05-05 09:44 39.11525 7.04167 35014 ft 457 kts 190°
2026-05-05 09:45 39.05168 7.03688 35010 ft 458 kts 190°
2026-05-05 09:45 38.98813 7.03146 35008 ft 455 kts 193°
2026-05-05 09:46 38.92538 7.02138 35015 ft 454 kts 194°
2026-05-05 09:46 38.86265 7.01087 35016 ft 455 kts 194°
2026-05-05 09:47 38.79985 7.00051 35012 ft 455 kts 193°
2026-05-05 09:47 38.73689 6.99028 35014 ft 456 kts 193°
2026-05-05 09:48 38.67431 6.98017 35016 ft 456 kts 193°
2026-05-05 09:48 38.61124 6.97001 35011 ft 457 kts 193°
2026-05-05 09:49 38.54807 6.95985 35007 ft 457 kts 193°
2026-05-05 09:49 38.48499 6.94971 35009 ft 457 kts 193°
2026-05-05 09:50 38.42176 6.93956 35010 ft 457 kts 193°
2026-05-05 09:50 38.35898 6.92951 35006 ft 457 kts 193°
2026-05-05 09:51 38.29579 6.91941 35003 ft 457 kts 193°
2026-05-05 09:51 38.23254 6.90931 35007 ft 457 kts 193°
2026-05-05 09:52 38.16925 6.89923 35007 ft 457 kts 193°
2026-05-05 09:52 38.10601 6.88917 35006 ft 458 kts 193°
2026-05-05 09:53 38.04285 6.87914 35008 ft 458 kts 193°
2026-05-05 09:53 37.98001 6.86918 35003 ft 458 kts 193°
2026-05-05 09:54 37.91668 6.85916 35005 ft 458 kts 193°
2026-05-05 09:54 37.85334 6.84916 35000 ft 458 kts 193°
2026-05-05 09:55 37.79004 6.83918 35005 ft 459 kts 192°
2026-05-05 09:55 37.72693 6.82924 35001 ft 459 kts 192°
2026-05-05 09:56 37.66349 6.81927 34999 ft 459 kts 192°
2026-05-05 09:56 37.59992 6.80930 35003 ft 460 kts 192°
2026-05-05 09:57 37.53632 6.79934 35003 ft 460 kts 192°
2026-05-05 09:57 37.47268 6.78939 34996 ft 461 kts 192°
2026-05-05 09:58 37.40899 6.77946 34993 ft 461 kts 192°
2026-05-05 09:58 37.34564 6.76959 34999 ft 461 kts 192°
2026-05-05 09:59 37.28200 6.75969 34993 ft 461 kts 192°
2026-05-05 09:59 37.21836 6.74981 34994 ft 460 kts 192°
2026-05-05 10:00 37.15477 6.73996 34993 ft 460 kts 192°
2026-05-05 10:00 37.09128 6.73014 34996 ft 459 kts 192°
2026-05-05 10:01 37.02822 6.72040 34994 ft 459 kts 192°
2026-05-05 10:01 36.96512 6.71067 34993 ft 458 kts 192°
2026-05-05 10:02 36.90168 6.70091 34994 ft 457 kts 192°
2026-05-05 10:02 36.83849 6.69118 35000 ft 457 kts 192°
2026-05-05 10:03 36.77528 6.68149 35000 ft 457 kts 192°
2026-05-05 10:03 36.71204 6.67178 34993 ft 458 kts 191°
2026-05-05 10:04 36.64870 6.66210 35003 ft 458 kts 191°
2026-05-05 10:04 36.58552 6.65248 35031 ft 458 kts 191°
2026-05-05 10:05 36.52266 6.64288 35054 ft 458 kts 191°
2026-05-05 10:05 36.45939 6.63324 35074 ft 458 kts 191°
2026-05-05 10:06 36.40671 6.62524 35105 ft 458 kts 191°
2026-05-05 10:06 36.34315 6.61560 35090 ft 461 kts 191°
2026-05-05 10:07 36.27921 6.60786 35096 ft 463 kts 186°
2026-05-05 10:07 36.21465 6.60967 35109 ft 464 kts 183°
2026-05-05 10:08 36.15002 6.61208 35079 ft 465 kts 183°
2026-05-05 10:08 36.08539 6.61422 35073 ft 463 kts 183°
2026-05-05 10:09 36.02108 6.61618 35051 ft 461 kts 184°
2026-05-05 10:09 35.95696 6.61807 35050 ft 460 kts 184°
2026-05-05 10:10 35.89347 6.61994 35060 ft 459 kts 184°
2026-05-05 10:10 35.82959 6.62182 35068 ft 459 kts 184°
2026-05-05 10:11 35.76571 6.62368 35063 ft 460 kts 184°
2026-05-05 10:11 35.70154 6.62561 35058 ft 462 kts 184°
2026-05-05 10:12 35.63717 6.62751 35061 ft 464 kts 184°
2026-05-05 10:12 35.57237 6.62941 35045 ft 466 kts 184°
2026-05-05 10:13 35.50747 6.63133 35050 ft 466 kts 184°
2026-05-05 10:13 35.44260 6.63324 35066 ft 468 kts 184°
2026-05-05 10:14 35.37772 6.63514 35032 ft 468 kts 184°
2026-05-05 10:14 35.31264 6.63706 35040 ft 467 kts 184°
2026-05-05 10:15 35.24760 6.63898 35039 ft 467 kts 184°
2026-05-05 10:15 35.18256 6.64086 35032 ft 467 kts 184°
2026-05-05 10:16 35.11744 6.64277 35031 ft 468 kts 185°
2026-05-05 10:16 35.05216 6.64467 35024 ft 469 kts 185°
2026-05-05 10:17 34.98719 6.64656 35005 ft 469 kts 185°
2026-05-05 10:17 34.92183 6.64845 35001 ft 471 kts 185°
2026-05-05 10:18 34.85623 6.65036 34999 ft 472 kts 185°
2026-05-05 10:18 34.79041 6.65227 34990 ft 474 kts 185°
2026-05-05 10:19 34.72432 6.65423 34980 ft 476 kts 185°
2026-05-05 10:19 34.65801 6.65624 34975 ft 477 kts 185°
2026-05-05 10:20 34.59163 6.65825 34972 ft 477 kts 186°
2026-05-05 10:20 34.52521 6.66025 34961 ft 477 kts 186°
2026-05-05 10:21 34.45878 6.66225 34958 ft 477 kts 186°
2026-05-05 10:21 34.39244 6.66424 34953 ft 477 kts 186°
2026-05-05 10:22 34.32613 6.66622 34961 ft 477 kts 186°
2026-05-05 10:22 34.25974 6.66820 34951 ft 477 kts 187°
2026-05-05 10:23 34.19345 6.67017 34958 ft 477 kts 187°
2026-05-05 10:23 34.12751 6.67213 34953 ft 477 kts 187°
2026-05-05 10:24 34.06119 6.67410 34952 ft 477 kts 187°
2026-05-05 10:24 33.99482 6.67606 34953 ft 477 kts 187°
2026-05-05 10:25 33.92841 6.67802 34950 ft 478 kts 187°
2026-05-05 10:25 33.86193 6.67999 34948 ft 478 kts 187°
2026-05-05 10:26 33.79542 6.68196 34954 ft 478 kts 187°
2026-05-05 10:26 33.72892 6.68392 34953 ft 478 kts 187°
2026-05-05 10:27 33.66253 6.68587 34955 ft 478 kts 187°
2026-05-05 10:27 33.59608 6.68782 34964 ft 477 kts 187°
2026-05-05 10:28 33.53010 6.68975 34963 ft 477 kts 187°
2026-05-05 10:28 33.46363 6.69170 34965 ft 478 kts 188°
2026-05-05 10:29 33.39717 6.69364 34962 ft 478 kts 188°
2026-05-05 10:29 33.33066 6.69558 34954 ft 478 kts 188°
2026-05-05 10:30 33.26409 6.69752 34947 ft 479 kts 188°
2026-05-05 10:30 33.19743 6.69945 34941 ft 479 kts 188°
2026-05-05 10:31 33.13071 6.70139 34929 ft 479 kts 188°
2026-05-05 10:31 33.06398 6.70334 34930 ft 480 kts 188°
2026-05-05 10:32 32.99722 6.70527 34927 ft 480 kts 188°
2026-05-05 10:32 32.93085 6.70719 34922 ft 480 kts 188°
2026-05-05 10:33 32.86397 6.70911 34926 ft 480 kts 187°
2026-05-05 10:33 32.79701 6.71104 34913 ft 481 kts 187°
2026-05-05 10:34 32.73012 6.71297 34916 ft 481 kts 187°
2026-05-05 10:34 32.66327 6.71489 34913 ft 481 kts 187°
2026-05-05 10:35 32.59641 6.71682 34911 ft 481 kts 187°
2026-05-05 10:35 32.52996 6.71873 34914 ft 481 kts 187°
2026-05-05 10:36 32.46308 6.72063 34908 ft 481 kts 187°
2026-05-05 10:36 32.39626 6.72254 34903 ft 480 kts 187°
2026-05-05 10:37 32.32945 6.72446 34906 ft 480 kts 187°
2026-05-05 10:37 32.26268 6.72637 34906 ft 480 kts 187°
2026-05-05 10:38 32.19584 6.72826 34902 ft 480 kts 187°
2026-05-05 10:38 32.12900 6.73015 34895 ft 480 kts 187°
2026-05-05 10:39 32.06211 6.73204 34895 ft 481 kts 187°
2026-05-05 10:39 31.99569 6.73392 34895 ft 481 kts 187°
2026-05-05 10:40 31.92877 6.73582 34891 ft 481 kts 187°
2026-05-05 10:40 31.86177 6.73771 34889 ft 481 kts 187°
2026-05-05 10:41 31.79475 6.73960 34890 ft 482 kts 187°
2026-05-05 10:41 31.72767 6.74149 34885 ft 482 kts 187°
2026-05-05 10:42 31.62694 6.74432 34886 ft 482 kts 187°
2026-05-05 10:43 31.56026 6.74619 34880 ft 482 kts 187°
2026-05-05 10:43 31.49309 6.74807 34877 ft 482 kts 187°
2026-05-05 10:44 31.42601 6.74995 34875 ft 482 kts 187°
2026-05-05 10:44 31.35894 6.75183 34875 ft 482 kts 187°
2026-05-05 10:45 31.29174 6.75371 34874 ft 482 kts 186°
2026-05-05 10:45 31.22466 6.75557 34876 ft 482 kts 186°
2026-05-05 10:46 31.15756 6.75744 34874 ft 482 kts 186°
2026-05-05 10:46 31.09040 6.75930 34865 ft 482 kts 186°
2026-05-05 10:47 31.02328 6.76117 34871 ft 483 kts 186°
2026-05-05 10:47 30.95656 6.76301 34870 ft 483 kts 186°
2026-05-05 10:48 30.88938 6.76487 34866 ft 483 kts 186°
2026-05-05 10:48 30.82207 6.76673 34866 ft 483 kts 186°
2026-05-05 10:49 30.75481 6.76859 34862 ft 483 kts 186°
2026-05-05 10:49 30.68754 6.77044 34863 ft 484 kts 186°
2026-05-05 10:50 30.62015 6.77229 34859 ft 484 kts 186°
2026-05-05 10:50 30.55285 6.77414 34858 ft 484 kts 186°
2026-05-05 10:51 30.48593 6.77598 34859 ft 484 kts 186°
2026-05-05 10:51 30.41852 6.77782 34859 ft 484 kts 186°
2026-05-05 10:52 30.35104 6.77967 34860 ft 485 kts 186°
2026-05-05 10:52 30.28358 6.78151 34857 ft 485 kts 186°
2026-05-05 10:53 30.21606 6.78335 34858 ft 485 kts 186°
2026-05-05 10:53 30.14899 6.78519 34852 ft 485 kts 186°
2026-05-05 10:54 30.08140 6.78703 34854 ft 486 kts 186°
2026-05-05 10:54 30.01383 6.78885 34858 ft 486 kts 186°
2026-05-05 10:55 29.94620 6.79069 34847 ft 486 kts 186°
2026-05-05 10:55 29.87857 6.79253 34846 ft 487 kts 186°
2026-05-05 10:56 29.82224 6.79405 34853 ft 487 kts 186°
2026-05-05 10:56 29.75452 6.79589 34853 ft 487 kts 186°
2026-05-05 10:57 29.68674 6.79771 34850 ft 487 kts 186°
2026-05-05 10:57 29.61895 6.79954 34848 ft 487 kts 186°
2026-05-05 10:58 29.55123 6.80136 34854 ft 487 kts 187°
2026-05-05 10:58 29.48382 6.80317 34848 ft 487 kts 187°
2026-05-05 10:59 29.41605 6.80500 34851 ft 487 kts 187°
2026-05-05 10:59 29.34823 6.80682 34848 ft 487 kts 187°
2026-05-05 11:00 29.28047 6.80863 34844 ft 487 kts 187°
2026-05-05 11:00 29.21280 6.81045 34851 ft 486 kts 187°
2026-05-05 11:01 29.14515 6.81226 34858 ft 486 kts 187°
2026-05-05 11:01 29.07745 6.81405 34848 ft 487 kts 187°
2026-05-05 11:02 29.00965 6.81584 34846 ft 487 kts 187°
2026-05-05 11:02 28.94193 6.81766 34838 ft 487 kts 187°
2026-05-05 11:03 28.87396 6.81946 34839 ft 488 kts 187°
2026-05-05 11:03 28.80604 6.82128 34835 ft 488 kts 187°
2026-05-05 11:04 28.73866 6.82306 34838 ft 487 kts 187°
2026-05-05 11:04 28.67084 6.82484 34840 ft 487 kts 187°
2026-05-05 11:05 28.60298 6.82663 34854 ft 488 kts 187°
2026-05-05 11:05 28.53506 6.82843 34843 ft 488 kts 187°
2026-05-05 11:06 28.46723 6.83022 34851 ft 487 kts 187°
2026-05-05 11:06 28.39946 6.83201 34852 ft 487 kts 187°
2026-05-05 11:07 28.33174 6.83379 34850 ft 487 kts 187°
2026-05-05 11:07 28.26407 6.83556 34854 ft 486 kts 187°
2026-05-05 11:08 28.19641 6.83734 34851 ft 486 kts 186°
2026-05-05 11:08 28.12921 6.83932 34853 ft 487 kts 185°
2026-05-05 11:09 28.06139 6.84622 34852 ft 490 kts 182°
2026-05-05 11:09 27.99347 6.85418 34852 ft 491 kts 182°
2026-05-05 11:10 27.92543 6.86203 34857 ft 491 kts 182°
2026-05-05 11:10 27.85735 6.86963 34856 ft 492 kts 182°
2026-05-05 11:11 27.78912 6.87717 34858 ft 494 kts 182°
2026-05-05 11:11 27.72062 6.88472 34858 ft 495 kts 182°
2026-05-05 11:12 27.65206 6.89228 34851 ft 496 kts 182°
2026-05-05 11:12 27.58335 6.89987 34840 ft 496 kts 182°
2026-05-05 11:13 27.51505 6.90741 34852 ft 496 kts 182°
2026-05-05 11:13 27.44633 6.91497 34847 ft 496 kts 182°
2026-05-05 11:14 27.37773 6.92251 34850 ft 496 kts 182°
2026-05-05 11:14 27.30912 6.93004 34846 ft 495 kts 182°
2026-05-05 11:15 27.24054 6.93757 34853 ft 494 kts 182°
2026-05-05 11:15 27.17202 6.94506 34845 ft 494 kts 182°
2026-05-05 11:16 27.10361 6.95254 34846 ft 494 kts 182°
2026-05-05 11:16 27.03514 6.96002 34848 ft 494 kts 182°
2026-05-05 11:17 26.96720 6.96743 34854 ft 494 kts 182°
2026-05-05 11:17 26.89871 6.97489 34844 ft 495 kts 182°
2026-05-05 11:18 26.83013 6.98236 34859 ft 496 kts 182°
2026-05-05 11:18 26.76125 6.98983 34854 ft 497 kts 182°
2026-05-05 11:19 26.69242 6.99731 34844 ft 497 kts 182°
2026-05-05 11:19 26.62371 7.00477 34861 ft 496 kts 182°
2026-05-05 11:20 26.55489 7.01222 34856 ft 496 kts 182°
2026-05-05 11:20 26.48611 7.01967 34855 ft 496 kts 182°
2026-05-05 11:21 26.41799 7.02703 34856 ft 495 kts 182°
2026-05-05 11:21 26.34940 7.03442 34864 ft 495 kts 182°
2026-05-05 11:22 26.28073 7.04182 34866 ft 496 kts 182°
2026-05-05 11:22 26.21197 7.04921 34869 ft 496 kts 182°
2026-05-05 11:23 26.14325 7.05661 34880 ft 497 kts 182°
2026-05-05 11:23 26.07450 7.06401 34901 ft 496 kts 182°
2026-05-05 11:24 26.00586 7.07138 34894 ft 494 kts 182°
2026-05-05 11:24 25.93689 7.07878 34909 ft 501 kts 181°
2026-05-05 11:25 25.86752 7.08638 34913 ft 501 kts 181°
2026-05-05 11:25 25.79804 7.09398 34908 ft 502 kts 181°
2026-05-05 11:26 25.72864 7.10155 34907 ft 501 kts 181°
2026-05-05 11:26 25.65936 7.10908 34921 ft 500 kts 181°
2026-05-05 11:27 25.59018 7.11659 34930 ft 499 kts 181°
2026-05-05 11:27 25.52159 7.12402 34930 ft 498 kts 181°
2026-05-05 11:28 25.45262 7.13148 34925 ft 498 kts 181°
2026-05-05 11:28 25.38322 7.13898 34925 ft 498 kts 181°
2026-05-05 11:29 25.31465 7.14639 34930 ft 498 kts 181°
2026-05-05 11:29 25.24557 7.15384 34929 ft 498 kts 181°
2026-05-05 11:30 25.17656 7.16128 34931 ft 499 kts 181°
2026-05-05 11:30 25.10732 7.16872 34927 ft 500 kts 181°
2026-05-05 11:31 25.03792 7.17619 34926 ft 501 kts 181°
2026-05-05 11:31 24.96844 7.18366 34925 ft 502 kts 181°
2026-05-05 11:32 24.89887 7.19114 34918 ft 503 kts 181°
2026-05-05 11:32 24.82913 7.19862 34922 ft 503 kts 181°
2026-05-05 11:33 24.75995 7.20605 34920 ft 503 kts 181°
2026-05-05 11:33 24.69032 7.21353 34923 ft 503 kts 181°
2026-05-05 11:34 24.62069 7.22098 34921 ft 502 kts 181°
2026-05-05 11:34 24.55116 7.22843 34920 ft 502 kts 181°
2026-05-05 11:35 24.48162 7.23586 34917 ft 502 kts 181°
2026-05-05 11:35 24.41212 7.24329 34925 ft 502 kts 181°
2026-05-05 11:36 24.34262 7.25070 34918 ft 501 kts 181°
2026-05-05 11:36 24.27311 7.25810 34939 ft 501 kts 180°
2026-05-05 11:37 24.20364 7.26550 34919 ft 501 kts 180°
2026-05-05 11:37 24.13467 7.27283 34930 ft 501 kts 180°
2026-05-05 11:38 24.06534 7.28019 34931 ft 500 kts 180°
2026-05-05 11:38 23.99594 7.28755 34931 ft 500 kts 180°
2026-05-05 11:39 23.92668 7.29490 34922 ft 500 kts 180°
2026-05-05 11:39 23.85735 7.30223 34919 ft 500 kts 180°
2026-05-05 11:40 23.78809 7.30955 34916 ft 500 kts 180°
2026-05-05 11:40 23.71875 7.31688 34916 ft 500 kts 180°
2026-05-05 11:41 23.64940 7.32421 34913 ft 500 kts 180°
2026-05-05 11:41 23.58011 7.33151 34902 ft 500 kts 180°
2026-05-05 11:42 23.51138 7.33874 34901 ft 500 kts 180°
2026-05-05 11:42 23.44216 7.34766 34894 ft 501 kts 178°
2026-05-05 11:43 23.37296 7.35814 34898 ft 502 kts 178°
2026-05-05 11:43 23.30380 7.36855 34888 ft 502 kts 178°
2026-05-05 11:44 23.24631 7.37696 34890 ft 501 kts 178°
2026-05-05 11:44 23.17713 7.38692 34888 ft 501 kts 178°
2026-05-05 11:45 23.10794 7.39684 34885 ft 501 kts 178°
2026-05-05 11:45 23.03879 7.40677 34884 ft 501 kts 178°
2026-05-05 11:46 22.96956 7.41671 34871 ft 501 kts 178°
2026-05-05 11:46 22.90039 7.42663 34876 ft 501 kts 178°
2026-05-05 11:47 22.83117 7.43655 34874 ft 501 kts 178°
2026-05-05 11:47 22.76200 7.44645 34868 ft 501 kts 178°
2026-05-05 11:48 22.65873 7.46122 34869 ft 501 kts 178°
2026-05-05 11:48 22.58953 7.47109 34866 ft 501 kts 178°
2026-05-05 11:49 22.52039 7.48096 34861 ft 501 kts 178°
2026-05-05 11:49 22.45120 7.49082 34859 ft 501 kts 178°
2026-05-05 11:50 22.38201 7.50067 34854 ft 501 kts 178°
2026-05-05 11:50 22.31280 7.51051 34853 ft 501 kts 178°
2026-05-05 11:51 22.24371 7.52032 34851 ft 500 kts 178°
2026-05-05 11:51 22.17514 7.53006 34854 ft 500 kts 178°
2026-05-05 11:52 22.10617 7.53983 34843 ft 500 kts 178°
2026-05-05 11:52 22.03726 7.54960 34843 ft 499 kts 178°
2026-05-05 11:53 21.96842 7.55934 34843 ft 499 kts 178°
2026-05-05 11:53 21.89962 7.56906 34842 ft 498 kts 178°
2026-05-05 11:54 21.83075 7.57879 34835 ft 498 kts 178°
2026-05-05 11:54 21.76201 7.58849 34837 ft 498 kts 178°
2026-05-05 11:55 21.69334 7.59817 34836 ft 498 kts 178°
2026-05-05 11:55 21.62465 7.60784 34829 ft 497 kts 178°
2026-05-05 11:56 21.55603 7.61750 34833 ft 497 kts 178°
2026-05-05 11:56 21.48902 7.62691 34832 ft 497 kts 178°
2026-05-05 11:57 21.42039 7.63655 34833 ft 497 kts 178°
2026-05-05 11:57 21.35164 7.64619 34828 ft 498 kts 178°
2026-05-05 11:58 21.28339 7.65576 34827 ft 498 kts 178°
2026-05-05 11:58 21.21457 7.66540 34826 ft 498 kts 178°
2026-05-05 11:59 21.14575 7.67503 34825 ft 498 kts 178°
2026-05-05 11:59 21.07700 7.68464 34823 ft 498 kts 178°
2026-05-05 12:00 21.00811 7.69426 34824 ft 499 kts 178°
2026-05-05 12:00 20.93935 7.70283 34820 ft 496 kts 181°
2026-05-05 12:01 20.87098 7.70839 34815 ft 496 kts 181°
2026-05-05 12:01 20.80215 7.71355 34817 ft 496 kts 181°
2026-05-05 12:02 20.73330 7.71892 34816 ft 496 kts 181°
2026-05-05 12:02 20.66443 7.72447 34811 ft 496 kts 181°
2026-05-05 12:03 20.59551 7.73007 34813 ft 496 kts 181°
2026-05-05 12:03 20.52664 7.73564 34814 ft 496 kts 181°
2026-05-05 12:04 20.45767 7.74121 34805 ft 497 kts 181°
2026-05-05 12:04 20.38872 7.74677 34806 ft 497 kts 181°
2026-05-05 12:05 20.32013 7.75230 34811 ft 497 kts 181°
2026-05-05 12:05 20.25117 7.75784 34803 ft 497 kts 181°
2026-05-05 12:06 20.18209 7.76340 34806 ft 497 kts 181°
2026-05-05 12:06 20.11308 7.76895 34800 ft 497 kts 181°
2026-05-05 12:07 20.04407 7.77449 34798 ft 497 kts 180°
2026-05-05 12:07 19.97506 7.78002 34801 ft 496 kts 180°
2026-05-05 12:08 19.90659 7.78550 34801 ft 496 kts 180°
2026-05-05 12:08 19.83781 7.79102 34803 ft 496 kts 180°
2026-05-05 12:09 19.76900 7.79652 34794 ft 496 kts 180°
2026-05-05 12:09 19.70019 7.80202 34789 ft 495 kts 180°
2026-05-05 12:10 19.63144 7.80751 34794 ft 495 kts 180°
2026-05-05 12:10 19.56277 7.81299 34800 ft 494 kts 180°
2026-05-05 12:11 19.49424 7.81846 34795 ft 494 kts 180°
2026-05-05 12:11 19.42571 7.82405 34801 ft 493 kts 180°
2026-05-05 12:12 19.35773 7.82967 34797 ft 493 kts 180°
2026-05-05 12:12 19.28942 7.83532 34800 ft 492 kts 180°
2026-05-05 12:13 19.22116 7.84093 34796 ft 491 kts 180°
2026-05-05 12:13 19.15301 7.84653 34795 ft 491 kts 181°
2026-05-05 12:14 19.08480 7.85212 34793 ft 491 kts 181°
2026-05-05 12:14 19.01703 7.85767 34797 ft 492 kts 181°
2026-05-05 12:15 18.94874 7.86326 34803 ft 492 kts 181°
2026-05-05 12:15 18.88041 7.86884 34792 ft 492 kts 181°
2026-05-05 12:16 18.81210 7.87444 34796 ft 493 kts 180°
2026-05-05 12:16 18.74368 7.88002 34792 ft 493 kts 180°
2026-05-05 12:17 18.67525 7.88561 34794 ft 493 kts 180°
2026-05-05 12:17 18.60687 7.89118 34789 ft 493 kts 180°
2026-05-05 12:18 18.53841 7.89676 34788 ft 494 kts 180°
2026-05-05 12:18 18.47026 7.90231 34792 ft 494 kts 180°
2026-05-05 12:19 18.40176 7.90789 34790 ft 494 kts 180°
2026-05-05 12:19 18.33321 7.91346 34782 ft 494 kts 180°
2026-05-05 12:20 18.26471 7.91903 34782 ft 493 kts 180°
2026-05-05 12:20 18.19616 7.92458 34788 ft 493 kts 180°
2026-05-05 12:21 18.12762 7.93014 34780 ft 493 kts 180°
2026-05-05 12:21 18.05924 7.93569 34787 ft 493 kts 180°
2026-05-05 12:22 17.99121 7.94120 34782 ft 493 kts 180°
2026-05-05 12:22 17.92276 7.94674 34785 ft 493 kts 180°
2026-05-05 12:23 17.85439 7.95227 34786 ft 493 kts 180°
2026-05-05 12:23 17.78596 7.95779 34786 ft 493 kts 180°
2026-05-05 12:24 17.71757 7.96331 34787 ft 493 kts 180°
2026-05-05 12:24 17.64912 7.96883 34792 ft 493 kts 180°
2026-05-05 12:25 17.58064 7.97435 34801 ft 493 kts 180°
2026-05-05 12:25 17.51262 7.97983 34795 ft 493 kts 180°
2026-05-05 12:26 17.44421 7.98534 34798 ft 493 kts 180°
2026-05-05 12:26 17.37581 7.99084 34798 ft 493 kts 180°
2026-05-05 12:27 17.30735 7.99634 34808 ft 493 kts 180°
2026-05-05 12:27 17.23890 8.00183 34824 ft 494 kts 180°
2026-05-05 12:28 17.17036 8.00734 34864 ft 493 kts 180°
2026-05-05 12:28 17.10185 8.01283 34896 ft 494 kts 180°
2026-05-05 12:29 17.03321 8.01833 34916 ft 495 kts 180°
2026-05-05 12:29 16.96491 8.02383 34911 ft 496 kts 180°
2026-05-05 12:30 16.89600 8.03025 34910 ft 497 kts 179°
2026-05-05 12:30 16.82704 8.03713 34897 ft 498 kts 179°
2026-05-05 12:31 16.75789 8.04394 34855 ft 499 kts 179°
2026-05-05 12:31 16.68860 8.05065 34829 ft 500 kts 179°
2026-05-05 12:32 16.61923 8.05733 34793 ft 501 kts 179°
2026-05-05 12:32 16.55012 8.06398 34792 ft 502 kts 179°
2026-05-05 12:33 16.48051 8.07067 34800 ft 502 kts 179°
2026-05-05 12:33 16.42259 8.07624 34793 ft 503 kts 179°
2026-05-05 12:34 16.35286 8.08295 34794 ft 504 kts 179°
2026-05-05 12:34 16.28300 8.08966 34795 ft 504 kts 179°
2026-05-05 12:35 16.21301 8.09638 34794 ft 505 kts 179°
2026-05-05 12:35 16.14305 8.10309 34797 ft 505 kts 179°
2026-05-05 12:36 16.07293 8.10981 34795 ft 506 kts 179°
2026-05-05 12:36 16.00286 8.11651 34797 ft 506 kts 179°
2026-05-05 12:37 15.93315 8.12319 34801 ft 506 kts 179°
2026-05-05 12:37 15.86296 8.12990 34795 ft 506 kts 179°
2026-05-05 12:38 15.79277 8.13661 34794 ft 507 kts 179°
2026-05-05 12:38 15.72250 8.14332 34791 ft 507 kts 179°
2026-05-05 12:39 15.65232 8.15002 34798 ft 507 kts 179°
2026-05-05 12:39 15.58204 8.15672 34793 ft 507 kts 179°
2026-05-05 12:40 15.51185 8.16341 34791 ft 507 kts 179°
2026-05-05 12:40 15.44207 8.17006 34791 ft 507 kts 179°
2026-05-05 12:41 15.37182 8.17675 34792 ft 507 kts 178°
2026-05-05 12:41 15.30148 8.18343 34786 ft 507 kts 178°
2026-05-05 12:42 15.23122 8.19011 34792 ft 506 kts 178°
2026-05-05 12:42 15.16100 8.19679 34788 ft 506 kts 178°
2026-05-05 12:43 15.09083 8.20345 34794 ft 506 kts 178°
2026-05-05 12:43 15.02110 8.21007 34790 ft 507 kts 178°
2026-05-05 12:44 14.95089 8.21673 34786 ft 507 kts 178°
2026-05-05 12:44 14.88024 8.22344 34787 ft 507 kts 178°
2026-05-05 12:45 14.81042 8.23007 34784 ft 507 kts 178°
2026-05-05 12:45 14.74018 8.23673 34789 ft 507 kts 178°
2026-05-05 12:46 14.66987 8.24339 34786 ft 507 kts 178°
2026-05-05 12:46 14.59956 8.25005 34790 ft 507 kts 178°
2026-05-05 12:47 14.52928 8.25670 34786 ft 507 kts 178°
2026-05-05 12:47 14.45906 8.26334 34784 ft 507 kts 178°
2026-05-05 12:48 14.38925 8.26994 34788 ft 507 kts 179°
2026-05-05 12:48 14.31894 8.27658 34789 ft 507 kts 179°
2026-05-05 12:49 14.24868 8.28321 34788 ft 507 kts 179°
2026-05-05 12:49 14.17835 8.28985 34785 ft 507 kts 179°
2026-05-05 12:50 14.10800 8.29649 34787 ft 507 kts 179°
2026-05-05 12:50 14.03770 8.30311 34786 ft 507 kts 179°
2026-05-05 12:51 13.96786 8.30969 34785 ft 507 kts 179°
2026-05-05 12:51 13.89753 8.31631 34788 ft 507 kts 179°
2026-05-05 12:52 13.82718 8.32293 34786 ft 507 kts 179°
2026-05-05 12:52 13.75692 8.32953 34785 ft 507 kts 179°
2026-05-05 12:53 13.68670 8.33615 34784 ft 507 kts 178°
2026-05-05 12:53 13.61638 8.34278 34786 ft 507 kts 178°
2026-05-05 12:54 13.51153 8.35268 34788 ft 506 kts 178°
2026-05-05 12:55 13.44133 8.35929 34789 ft 506 kts 178°
2026-05-05 12:55 13.37118 8.36589 34786 ft 506 kts 178°
2026-05-05 12:56 13.30105 8.37250 34788 ft 506 kts 178°
2026-05-05 12:56 13.23097 8.37909 34786 ft 506 kts 178°
2026-05-05 12:57 13.16081 8.38568 34787 ft 506 kts 178°
2026-05-05 12:57 13.09112 8.39223 34789 ft 506 kts 178°
2026-05-05 12:58 13.02103 8.39905 34788 ft 506 kts 178°
2026-05-05 12:58 12.95091 8.40609 34789 ft 506 kts 178°
2026-05-05 12:59 12.88087 8.41309 34790 ft 505 kts 178°
2026-05-05 12:59 12.81089 8.42003 34785 ft 505 kts 178°
2026-05-05 13:00 12.70589 8.43039 34787 ft 505 kts 178°
2026-05-05 13:01 12.56593 8.44411 34791 ft 505 kts 178°
2026-05-05 13:01 12.49646 8.45092 34792 ft 505 kts 178°
2026-05-05 13:02 12.42646 8.45778 34790 ft 505 kts 178°
2026-05-05 13:02 12.35653 8.46463 34788 ft 505 kts 178°
2026-05-05 13:03 12.28657 8.47148 34787 ft 505 kts 178°
2026-05-05 13:03 12.21653 8.47834 34789 ft 505 kts 178°
2026-05-05 13:04 12.14659 8.48518 34786 ft 504 kts 178°
2026-05-05 13:04 12.07717 8.49197 34788 ft 504 kts 178°
2026-05-05 13:05 12.00738 8.50043 34786 ft 506 kts 173°
2026-05-05 13:05 11.93797 8.51293 34789 ft 506 kts 172°
2026-05-05 13:06 11.86864 8.52581 34784 ft 506 kts 172°
2026-05-05 13:06 11.79925 8.53843 34787 ft 506 kts 173°
2026-05-05 13:07 11.72990 8.55085 34791 ft 506 kts 173°
2026-05-05 13:07 11.66056 8.56322 34795 ft 506 kts 173°
2026-05-05 13:08 11.59165 8.57553 34794 ft 506 kts 173°
2026-05-05 13:08 11.52231 8.58792 34797 ft 506 kts 172°
2026-05-05 13:09 11.45298 8.60030 34798 ft 506 kts 172°
2026-05-05 13:09 11.38368 8.61267 34799 ft 506 kts 172°
2026-05-05 13:10 11.31436 8.62504 34802 ft 506 kts 172°
2026-05-05 13:10 11.24495 8.63742 34810 ft 506 kts 172°
2026-05-05 13:11 11.17561 8.64978 34810 ft 506 kts 172°
2026-05-05 13:11 11.10621 8.66215 34812 ft 506 kts 172°
2026-05-05 13:12 11.03721 8.67443 34815 ft 506 kts 172°
2026-05-05 13:12 10.96793 8.68677 34820 ft 506 kts 172°
2026-05-05 13:13 10.89854 8.69911 34819 ft 505 kts 172°
2026-05-05 13:13 10.82904 8.70853 34831 ft 503 kts 175°
2026-05-05 13:14 10.75934 8.71612 34834 ft 503 kts 176°
2026-05-05 13:14 10.68963 8.72372 34835 ft 503 kts 175°
2026-05-05 13:15 10.62036 8.73154 34833 ft 503 kts 175°
2026-05-05 13:15 10.55071 8.73951 34841 ft 503 kts 175°
2026-05-05 13:16 10.48116 8.74747 34841 ft 503 kts 175°
2026-05-05 13:16 10.41156 8.75542 34845 ft 503 kts 175°
2026-05-05 13:17 10.34198 8.76336 34849 ft 503 kts 175°
2026-05-05 13:17 10.27288 8.77123 34855 ft 503 kts 175°
2026-05-05 13:18 10.20333 8.77915 34858 ft 503 kts 175°
2026-05-05 13:18 10.13380 8.78707 34864 ft 503 kts 175°
2026-05-05 13:19 10.06424 8.79499 34865 ft 503 kts 175°
2026-05-05 13:19 9.99464 8.80291 34872 ft 503 kts 175°
2026-05-05 13:20 9.92510 8.81083 34877 ft 503 kts 175°
2026-05-05 13:20 9.85553 8.81873 34882 ft 503 kts 175°
2026-05-05 13:21 9.78604 8.82663 34891 ft 502 kts 175°
2026-05-05 13:21 9.71652 8.83453 34893 ft 502 kts 175°
2026-05-05 13:22 9.64710 8.84242 34897 ft 502 kts 175°
2026-05-05 13:22 9.57817 8.85129 34901 ft 502 kts 173°
2026-05-05 13:23 9.50895 8.86125 34898 ft 502 kts 173°
2026-05-05 13:23 9.43970 8.87117 34901 ft 502 kts 173°
2026-05-05 13:24 9.38171 8.87933 34889 ft 502 kts 173°
2026-05-05 13:24 9.31292 8.88890 34882 ft 502 kts 173°
2026-05-05 13:25 9.24378 8.89851 34880 ft 501 kts 173°
2026-05-05 13:25 9.17460 8.90814 34872 ft 501 kts 173°
2026-05-05 13:26 9.10551 8.91776 34865 ft 500 kts 173°
2026-05-05 13:26 9.03697 8.92730 34853 ft 500 kts 173°
2026-05-05 13:27 8.96807 8.93689 34841 ft 500 kts 173°
2026-05-05 13:27 8.89921 8.94646 34828 ft 499 kts 173°
2026-05-05 13:28 8.83031 8.95603 34816 ft 499 kts 173°
2026-05-05 13:28 8.76147 8.96560 34808 ft 498 kts 173°
2026-05-05 13:29 8.69273 8.97515 34808 ft 498 kts 173°
2026-05-05 13:29 8.62413 8.98467 34799 ft 498 kts 173°
2026-05-05 13:30 8.55601 8.99413 34801 ft 497 kts 173°
2026-05-05 13:30 8.48747 9.00364 34801 ft 496 kts 173°
2026-05-05 13:31 8.41899 9.01313 34797 ft 496 kts 173°
2026-05-05 13:31 8.35052 9.02176 34803 ft 495 kts 174°
2026-05-05 13:32 8.28213 9.03007 34802 ft 495 kts 174°
2026-05-05 13:32 8.21376 9.03851 34803 ft 495 kts 174°
2026-05-05 13:33 8.14582 9.04687 34803 ft 495 kts 174°
2026-05-05 13:33 8.07739 9.05534 34804 ft 495 kts 173°
2026-05-05 13:34 8.00903 9.06451 34806 ft 496 kts 173°
2026-05-05 13:34 7.94054 9.07394 34807 ft 497 kts 173°
2026-05-05 13:35 7.87193 9.08331 34802 ft 498 kts 173°
2026-05-05 13:35 7.80323 9.09261 34804 ft 498 kts 173°